STARLINK-5479 (55662 NORAD) Tracking and Keplerian Element Data

This shows tracking and keplerian element data for the satellite.

Feedback or suggestion? Click here.




ElementValue
Catalog55662
NameSTARLINK-5479
Epoch Orbit130
Epoch Day62.91667824
Epoch Year2023
RAAN110.1901
Inclination70.0001
Eccentricity0.000352
Argument of Perigee264.2891
Mean Anonmoly339.6734
Mean Motion15.75131354
Decay Rate-0.00973003
L11 55662U 23021AL 23062.91667824 -.00973003 00000+0 -72675-2 0 9990
L22 55662 70.0001 110.1901 0003520 264.2891 339.6734 15.75131354 1303



Live tracking and technical data element details for STARLINK-5479 (NORAD 55662). STARLINK-5479 can be tracked NOW for your location showing map with azimuth and elevation plus other details from your city location.







IsCatalogInMostPopularTable: catalog: 55662, numindb: 2
Update: records affected: 1



GetName: 55662 STARLINK-5479

Hit Count: updated at: Wed, 22 Mar 2023 15:50:00 GMT